[[{"header":{"parameterUnit":"m.s-1","parameterCategory":1,"la1":30.2991,"la2":30.254,"lo1":-89.0895,"lo2":-89.0444,"dy":0.0017,"dx":0.0017,"nx":28,"ny":28,"refTime":"2023-08-28T21:00:00:Z","depth":0,"parameterNumber":2,"parameterNumberName":"U-component_of_WINDS"},"data":[0,0,0,0,0,0,0,0,0,0,0,0,0,0,0,0,0,0,0,0,0,0,0,0,0,0,0,0,0,0,0,0,0,0,0,0,0,0,0,0,0,0,0,0,0,0,0,0,0,0,0,0,0,0,0,0,0,0,-2.5203,-2.5203,0,-2.5228,-2.5228,-2.5228,-2.5205,-2.5204,-2.5203,-2.5202,-2.5226,-2.5227,-2.5228,0,0,0,0,0,0,0,0,0,0,0,0,0,-2.5132,-2.5134,-2.5203,-2.5203,-2.5203,-2.5228,-2.5228,-2.5228,-2.5205,-2.5204,-2.5203,-2.5202,-2.5225,-2.5227,-2.5229,0,0,0,0,0,0,0,0,0,0,0,0,0,-2.5161,-2.5134,-2.5203,-2.5195,-2.5194,-2.5228,-2.5228,-2.5229,-2.5206,-2.5204,-2.5203,-2.5202,-2.5224,-2.5227,-2.5229,-2.527,0,0,-2.5236,-2.5237,0,0,0,0,0,0,0,0,-2.5159,-2.5163,-2.5196,-2.5195,-2.5195,-2.5212,-2.5212,-2.5242,-2.5206,-2.5201,-2.5202,-2.5201,-2.5222,-2.5224,-2.5232,-2.5271,-2.5272,-2.5236,-2.5237,-2.5238,-2.5239,0,0,0,0,0,0,0,-2.5157,-2.5162,-2.5212,-2.5196,-2.5196,-2.5189,-2.5192,-2.5217,-2.5219,-2.5202,-2.52,-2.5203,-2.5221,-2.523,-2.5232,-2.5273,-2.5236,-2.5238,-2.5239,-2.524,-2.5348,-2.535,0,0,0,0,0,0,-2.5156,-2.5161,-2.5212,-2.5213,-2.5173,-2.5192,-2.5194,-2.5208,-2.5219,-2.5219,-2.5205,-2.5202,-2.5227,-2.523,-2.5233,-2.5283,-2.5238,-2.524,-2.5241,-2.5347,-2.5348,-2.535,0,0,0,0,0,0,-2.5155,-2.5161,-2.5211,-2.5187,-2.5192,-2.5194,-2.521,-2.5209,-2.5218,-2.5221,-2.5221,-2.5213,-2.5226,-2.523,-2.5262,-2.5283,-2.5241,-2.5243,-2.5345,-2.5347,-2.5349,-2.5382,0,0,0,0,0,0,-2.5153,-2.5161,-2.5177,-2.5187,-2.5194,-2.5239,-2.5211,-2.5211,-2.5222,-2.5219,-2.5229,-2.5229,-2.5225,-2.5258,-2.5264,-2.5286,-2.5245,-2.5343,-2.5346,-2.5348,-2.5379,-2.5385,-2.5391,0,0,0,0,0,-2.5151,-2.5185,-2.5178,-2.5184,-2.5214,-2.5241,-2.5244,-2.524,-2.5224,-2.524,-2.5242,-2.5229,-2.528,-2.5262,-2.5268,-2.529,-2.5341,-2.5345,-2.5348,-2.5377,-2.5384,-2.5391,0,0,0,0,0,0,-2.5176,-2.5186,-2.5178,-2.5217,-2.5228,-2.5237,-2.5257,-2.5248,-2.5263,-2.526,-2.5253,-2.5255,-2.5289,-2.5293,-2.5272,-2.5331,-2.5308,-2.5313,-2.5328,-2.5335,-2.534,-2.5339,-2.5247,0,0,0,0,0,-2.5186,-2.5207,-2.5215,-2.5248,-2.5254,-2.5255,-2.5266,-2.5262,-2.5273,-2.5277,-2.5282,-2.5292,-2.5311,-2.5323,-2.534,-2.538,-2.5382,-2.5398,-2.5404,-2.5409,-2.5413,-2.5435,-2.5442,-2.5361,-2.5361,-2.5361,0,0,-2.5207,-2.5215,-2.5229,-2.5253,-2.5261,-2.5283,-2.5259,-2.5283,-2.5299,-2.528,-2.5311,-2.5315,-2.5326,-2.5362,-2.5378,-2.5366,-2.5436,-2.5413,-2.5417,-2.5419,-2.5439,-2.5447,-2.5454,-2.5364,-2.5363,-2.5363,0,0,-2.5256,-2.5264,-2.5293,-2.5303,-2.5316,-2.5316,-2.5323,-2.5334,-2.5336,-2.5367,-2.5354,-2.5372,-2.5404,-2.5413,-2.5422,-2.5476,-2.5464,-2.5481,-2.5511,-2.5532,-2.5539,-2.5544,-2.5564,-2.5571,-2.5485,-2.5486,-2.5486,0,-2.528,-2.5313,-2.5309,-2.5334,-2.5345,-2.5331,-2.536,-2.5369,-2.5387,-2.5395,-2.5382,-2.5422,-2.5429,-2.5467,-2.548,-2.5488,-2.5495,-2.548,-2.5538,-2.5544,-2.5549,-2.5567,-2.5575,-2.5488,-2.5487,-2.5487,-2.5487,0,-2.5342,-2.5365,-2.5387,-2.5406,-2.542,-2.5447,-2.5446,-2.546,-2.5455,-2.5457,-2.5488,-2.5496,-2.5515,-2.5523,-2.5518,-2.5561,-2.5553,-2.554,-2.5516,-2.5559,-2.5576,-2.5583,-2.549,-2.549,-2.5489,-2.5489,0,0,-2.5406,-2.5424,-2.5432,-2.5441,-2.5455,-2.5473,-2.5499,-2.5519,-2.5531,-2.5544,-2.5566,-2.5594,-2.5582,-2.5592,-2.5587,-2.5606,-2.5649,-2.559,-2.559,-2.56,-2.5697,-2.5707,-2.5715,-2.5641,-2.5643,-2.5644,-2.5696,0,-2.5456,-2.5503,-2.5501,-2.5545,-2.5566,-2.5554,-2.5577,-2.5588,-2.559,-2.5608,-2.5611,-2.5631,-2.5613,-2.5619,-2.5637,-2.564,-2.5668,-2.5636,-2.5661,-2.5662,-2.5658,-2.5724,-2.5735,-2.5784,-2.5703,-2.5704,-2.5704,0,-2.552,-2.5537,-2.5584,-2.5596,-2.5605,-2.5626,-2.5644,-2.5661,-2.5674,-2.5674,-2.5686,-2.5679,-2.5705,-2.5681,-2.5717,-2.5696,-2.5706,-2.5709,-2.5711,-2.5712,-2.5686,-2.5728,-2.5799,-2.5806,-2.5715,-2.5714,-2.5713,0,-2.5563,-2.5597,-2.563,-2.5638,-2.5652,-2.5668,-2.5674,-2.5685,-2.5697,-2.5713,-2.5721,-2.5739,-2.5749,-2.5763,-2.576,-2.5743,-2.5797,-2.5773,-2.5798,-2.5798,-2.5809,-2.5809,-2.5883,-2.5817,-2.5816,-2.5816,-2.5816,0,-2.5619,-2.5648,-2.5649,-2.5669,-2.5701,-2.5698,-2.5729,-2.5734,-2.5744,-2.5765,-2.5755,-2.5774,-2.577,-2.5788,-2.5787,-2.5817,-2.5821,-2.5822,-2.5821,-2.5823,-2.5823,-2.5829,-2.5826,-2.5818,-2.5818,-2.5817,-2.5817,0,-2.5672,-2.5674,-2.5708,-2.572,-2.5724,-2.5747,-2.5757,-2.5775,-2.5777,-2.5803,-2.5809,-2.5812,-2.5834,-2.5833,-2.5857,-2.5856,-2.5893,-2.5889,-2.589,-2.5889,-2.5914,-2.5911,-2.5995,-2.6005,-2.5932,-2.5933,-2.5933,0,-2.5707,-2.5729,-2.5744,-2.5757,-2.5765,-2.5787,-2.58,-2.5798,-2.5811,-2.5828,-2.5844,-2.5865,-2.5882,-2.5917,-2.5921,-2.594,-2.5935,-2.5963,-2.5938,-2.5939,-2.5936,-2.5934,-2.5937,-2.5968,-2.5969,-2.597,-2.597,0,-2.5769,-2.577,-2.5789,-2.5809,-2.5825,-2.5841,-2.5855,-2.5866,-2.5866,-2.5882,-2.5905,-2.5918,-2.5943,-2.5964,-2.5983,-2.5989,-2.5979,-2.5978,-2.5985,-2.5987,-2.5987,-2.5987,-2.5903,-2.5976,-2.5976,-2.5975,-2.5975,-2.5975,-2.5814,-2.5834,-2.5847,-2.587,-2.588,-2.5894,-2.5913,-2.5918,-2.5937,-2.5959,-2.5956,-2.5982,-2.5994,-2.6018,-2.6025,-2.6045,-2.6035,-2.6045,-2.6047,-2.6049,-2.6052,-2.5984,-2.6048,-2.6048,-2.6048,-2.6048,-2.6048,0,-2.5876,-2.5885,-2.5905,-2.5926,-2.5944,-2.5935,-2.5951,-2.5966,-2.5989,-2.6001,-2.6019,-2.6045,-2.6066,-2.6072,-2.6092,-2.6106,-2.6102,-2.6111,-2.611,-2.6112,-2.606,-2.6052,-2.6114,-2.6114,-2.6114,-2.6114,-2.6114,-2.6114,-2.591,-2.5943,-2.5945,-2.5983,-2.5991,-2.6017,-2.6026,-2.6039,-2.6049,-2.608,-2.6097,-2.6102,-2.6112,-2.6133,-2.6151,-2.6152,-2.616,-2.6171,-2.617,-2.6122,-2.6115,-2.6109,-2.6101,-2.6173,-2.6173,-2.622,-2.6221,-2.6221]},{"header":{"parameterUnit":"m.s-1","parameterCategory":1,"la1":30.2991,"la2":30.254,"lo1":-89.0895,"lo2":-89.0444,"dy":0.0017,"dx":0.0017,"nx":28,"ny":28,"refTime":"2023-08-28T21:00:00:Z","depth":0,"parameterNumber":3,"parameterNumberName":"V-component_of_WINDS"},"data":[0,0,0,0,0,0,0,0,0,0,0,0,0,0,0,0,0,0,0,0,0,0,0,0,0,0,0,0,0,0,0,0,0,0,0,0,0,0,0,0,0,0,0,0,0,0,0,0,0,0,0,0,0,0,0,0,0,0,2.6258,2.6258,0,2.6257,2.6257,2.6257,2.6272,2.6272,2.6272,2.6273,2.6272,2.6272,2.6272,0,0,0,0,0,0,0,0,0,0,0,0,0,2.627,2.627,2.6258,2.6258,2.6258,2.6257,2.6257,2.6257,2.6271,2.6272,2.6272,2.6273,2.6272,2.6272,2.6272,0,0,0,0,0,0,0,0,0,0,0,0,0,2.6267,2.627,2.6258,2.6265,2.6265,2.6257,2.6257,2.6257,2.6271,2.6272,2.6273,2.6273,2.6273,2.6272,2.6272,2.6257,0,0,2.627,2.627,0,0,0,0,0,0,0,0,2.6267,2.6266,2.6264,2.6264,2.6265,2.6265,2.6262,2.6257,2.6271,2.6269,2.6273,2.6273,2.6269,2.6269,2.6268,2.6257,2.6257,2.627,2.627,2.6269,2.6269,0,0,0,0,0,0,0,2.6267,2.6267,2.6258,2.6264,2.6264,2.6268,2.6268,2.6261,2.6266,2.6269,2.627,2.627,2.627,2.6268,2.6268,2.6257,2.627,2.6269,2.6269,2.6269,2.6232,2.6231,0,0,0,0,0,0,2.6267,2.6267,2.6258,2.6258,2.6267,2.6267,2.6267,2.6264,2.6266,2.6267,2.627,2.6271,2.6269,2.6269,2.6268,2.6249,2.6269,2.6269,2.6268,2.6233,2.6232,2.6231,0,0,0,0,0,0,2.6267,2.6266,2.6258,2.6262,2.6262,2.6266,2.6263,2.6264,2.6263,2.6266,2.6267,2.6267,2.6269,2.6269,2.6259,2.625,2.6269,2.6268,2.6233,2.6232,2.6231,2.6213,0,0,0,0,0,0,2.6267,2.6266,2.626,2.6262,2.6261,2.6249,2.6263,2.6264,2.6262,2.6263,2.6264,2.6265,2.627,2.626,2.6259,2.6249,2.6268,2.6234,2.6233,2.6232,2.6214,2.6211,2.6209,0,0,0,0,0,2.6268,2.6256,2.626,2.6259,2.6255,2.6248,2.6248,2.6253,2.6261,2.6255,2.6257,2.6265,2.6251,2.6259,2.6257,2.6248,2.6235,2.6233,2.6232,2.6215,2.6212,2.6209,0,0,0,0,0,0,2.6253,2.6256,2.6261,2.6249,2.6248,2.6251,2.6244,2.625,2.6247,2.6248,2.6256,2.6256,2.6244,2.6246,2.6254,2.6233,2.6244,2.6242,2.6232,2.6229,2.6226,2.6225,2.6267,0,0,0,0,0,2.6248,2.6243,2.6246,2.6235,2.6235,2.6239,2.6237,2.6241,2.624,2.624,2.6242,2.6241,2.6236,2.6233,2.6229,2.6215,2.6214,2.6208,2.6205,2.6203,2.62,2.6191,2.6188,2.6226,2.6226,2.6226,0,0,2.6239,2.624,2.6236,2.6232,2.6232,2.6226,2.6239,2.6232,2.6227,2.6239,2.6229,2.6231,2.623,2.6218,2.6212,2.6218,2.619,2.6201,2.6199,2.6198,2.6189,2.6186,2.6182,2.6225,2.6225,2.6226,0,0,2.6218,2.6219,2.6209,2.6208,2.6207,2.621,2.6208,2.6209,2.621,2.6201,2.6209,2.6204,2.6196,2.6195,2.6193,2.617,2.6176,2.6169,2.6154,2.6145,2.6142,2.6139,2.6129,2.6125,2.6167,2.6167,2.6167,0,2.6206,2.6196,2.6203,2.6195,2.6193,2.6203,2.6193,2.6192,2.619,2.6188,2.6195,2.6184,2.6185,2.6171,2.6165,2.6164,2.6161,2.6168,2.6142,2.6139,2.6137,2.6127,2.6123,2.6166,2.6166,2.6166,2.6166,0,2.6181,2.6174,2.6167,2.6164,2.6161,2.6152,2.6156,2.6152,2.6157,2.6159,2.6149,2.615,2.6145,2.6143,2.6148,2.6129,2.6132,2.614,2.6152,2.6132,2.6123,2.6119,2.6164,2.6165,2.6165,2.6165,0,0,2.615,2.615,2.6147,2.6145,2.6145,2.614,2.6131,2.6126,2.6122,2.612,2.6112,2.6105,2.6112,2.611,2.6114,2.6107,2.6086,2.6115,2.6115,2.6108,2.6064,2.6056,2.6052,2.6091,2.609,2.609,2.6063,0,2.6128,2.6112,2.6118,2.6101,2.6094,2.6104,2.6096,2.6095,2.6096,2.6091,2.6093,2.6087,2.6097,2.6096,2.6089,2.609,2.6077,2.6092,2.6082,2.6081,2.608,2.6048,2.604,2.6015,2.606,2.6059,2.6059,0,2.61,2.6096,2.6079,2.6078,2.6076,2.6068,2.6063,2.6058,2.6057,2.6058,2.6056,2.6062,2.6052,2.6065,2.6051,2.6061,2.6057,2.6057,2.6057,2.6054,2.6068,2.6043,2.6007,2.6002,2.6054,2.6054,2.6055,0,2.6077,2.6068,2.6056,2.6054,2.6053,2.6048,2.6047,2.6046,2.6042,2.6038,2.6036,2.6031,2.6028,2.6024,2.6028,2.6037,2.6013,2.6026,2.6013,2.6013,2.6006,2.6006,2.5967,2.6007,2.6007,2.6007,2.6007,0,2.605,2.6039,2.6045,2.6037,2.6024,2.6031,2.6018,2.6018,2.6017,2.6009,2.6018,2.6011,2.6018,2.6011,2.6014,2.6001,2.6,2.6,2.6001,2.5998,2.5998,2.5995,2.5996,2.6006,2.6006,2.6006,2.6007,0,2.6022,2.6025,2.6012,2.6013,2.6012,2.6003,2.6003,2.5995,2.5998,2.5987,2.5986,2.5989,2.5981,2.5985,2.5977,2.598,2.5962,2.5966,2.5962,2.5962,2.5947,2.5948,2.5904,2.5897,2.5943,2.5943,2.5942,0,2.6004,2.5995,2.5994,2.5989,2.5987,2.598,2.5976,2.5982,2.5977,2.5974,2.5966,2.5959,2.5953,2.594,2.5941,2.5935,2.5938,2.5923,2.5937,2.5934,2.5935,2.5934,2.5932,2.5919,2.5919,2.5918,2.5918,0,2.5971,2.5973,2.5966,2.596,2.5954,2.595,2.5946,2.5942,2.5948,2.5942,2.5933,2.5929,2.592,2.5912,2.5906,2.5905,2.5912,2.5914,2.591,2.5906,2.5903,2.5902,2.5952,2.5914,2.5915,2.5915,2.5915,2.5915,2.5945,2.5937,2.5934,2.5927,2.5924,2.592,2.5912,2.5913,2.5906,2.5899,2.5903,2.5893,2.589,2.5883,2.5881,2.5873,2.5879,2.5874,2.5872,2.587,2.5867,2.5906,2.5872,2.5872,2.5872,2.5872,2.5873,0,2.5911,2.5909,2.5902,2.5896,2.5889,2.5896,2.5892,2.5886,2.5877,2.5874,2.5867,2.5857,2.5849,2.585,2.5842,2.5835,2.5837,2.5833,2.5832,2.5831,2.5863,2.5866,2.583,2.583,2.583,2.583,2.583,2.583,2.5892,2.5878,2.5879,2.5863,2.5862,2.5851,2.5848,2.5844,2.5841,2.5829,2.5822,2.5822,2.582,2.5813,2.5805,2.5806,2.5801,2.5795,2.5796,2.5825,2.5829,2.5833,2.5836,2.5794,2.5794,2.5764,2.5764,2.5764]}]]